COSMOS 1953

Satellite information

Favourite Embed

Satellite Type and Status

PAYLOADIN ORBIT

Key statistics

Satellite COSMOS 1953 at a glance.

Uptime

13697

Days in orbit

Revolutions

≈ 15.3

Per day

Orbit

LEO

Low Earth Orbit

Inclination

82.5

Latest

Satellite identification and parameters

Extended collection of information and parameters for COSMOS 1953.

Object identification

Identified? True

Debris? False

Object name: COSMOS 1953

International designator: 1988-050A

Object number (NORAD): 19210

Object ID (CCSDS): 19210

Country: COMMONWEALTH OF INDEPENDENT STATES (CIS)

Current information (Y/N): Y

RCS size: LARGE

Orbital parameters

Period: 94.305 minutes

Inclination: 82.509 deg

SMA: 6863.066 km

Apoapsis: 494.357 km

Periapsis: 475.505 km

RAAN: 244.6305 deg

Eccentricy: 0.00137341

Argument of periapsis: 68.5917 deg

Mean anomaly: 291.6785 deg

Mean motion: 15.26952402 rev/day

Mean motion (dot): 0.00006859 rev/day2

B* drag term: 0.00025736871 1/REarth

Two-line elements (TLE)

Creation date: Dec. 14, 2025, 3:07 a.m.

Reference frame: TEME

Reference center: EARTH

Epoch: Dec. 13, 2025, 4:29 p.m. UTC

TLE line 0: 0 COSMOS 1953

TLE line 1: 1 19210U 88050A 25347.68735876 .00006859 00000-0 25737-3 0 9990

TLE line 2: 2 19210 82.5090 244.6305 0013734 68.5917 291.6785 15.26952402 24658

Live tracking on map

Real-time ground track for satellite COSMOS 1953.

In-orbit conjunctions

There are no conjunctions computed for COSMOS 1953, at the moment. Check back to stay up to date, as we update our databases every day.

Go to all conjunctions

Associated space launch

Tselina-D satellites provided detailed observation of radio sources detected by the smaller Tselina-O satellites as part of the Tselina ELINT system.

COSMOS 1953 was lifted into orbit during the mission ‘Tsiklon-3 | Tselina-D 65’, on board a Tsiklon-3 space rocket.

The launch took place on June 14, 1988, 3:18 a.m. from 32/2.

For more information about the launch, click the button.

Launch to space Tsiklon-3 | Tselina-D 65
Tsiklon-3 | Tselina-D 65

Agency: N/A

Status: Launch Successful

Launch date: June 14, 1988, 3:18 a.m. UTC

Rocket: Tsiklon-3

Launch pad: 32/2

Location: Plesetsk Cosmodrome, Russian Federation

...

Latest news about this satellite

There are no fresh news available about this satellite. Check back as we update our databases every day.


Newsletter sign-up

Weekly statistics, charts and insights to help you stay on top of the space industry.